Flag for Romania Weather past 2 weeks in Iasi, Romania

Now
50 °F

Passing clouds.


Feels Like: 46 °F
Forecast: 43 / 50 °F
Wind: 12 mph from Northwest

Location: Iasi Airport

Current Time: Apr 19, 2015 at 7:56:22 PM

Latest Report: Apr 19, 2015 at 7:30 PM


Visibility: N/A

Pressure: 29.98 "Hg

Humidity: 50%

Dew point: 32 °F

Location of IasiLocation

Historic Weather in Iasi — Graph

°F

Iasi temperature yesterday

Maximum temperature yesterday: 54 °F (at 12:00 AM)
Minimum temperature yesterday: 43 °F (at 11:00 PM)
Average temperature yesterday: 48 °F

Past Weeks' High & Low Weather Summary

 TemperatureHumidityPressure
High79 °F (Apr 16, 4:00 PM)100% (Apr 5, 7:00 AM)30.39 "Hg (Apr 5, 7:00 AM)
Low32 °F (Apr 5, 6:30 AM)17% (Apr 11, 4:30 PM)29.68 "Hg (Apr 17, 5:00 PM)
Average52 °F58%30.05 "Hg
* Reported Apr 4 6:00 PM — Apr 19 6:30 PM, Iasi, Weather by CustomWeather, © 2015

Note: Actual official high and low records may vary slightly from our data, if they occured in-between our weather recording intervals... More about our weather records

Advertising

Iasi weather history for previous 24 hours

 ConditionsComfort  
Time TempWeatherWind HumidityBarometerVisibility
6:30 PM
Sun, Apr 19
50 °FPassing clouds.17 mph47%29.95 "HgN/A
6:00 PM52 °FPassing clouds.17 mph44%29.95 "HgN/A
5:30 PM50 °FPassing clouds.13 mph50%29.98 "HgN/A
5:00 PM48 °FPassing clouds.14 mph54%29.98 "HgN/A
4:30 PM50 °FPassing clouds.15 mph54%29.98 "HgN/A
4:00 PM50 °FPassing clouds.21 mph50%29.98 "HgN/A
3:30 PM48 °FScattered showers. Passing clouds.20 mph58%29.98 "HgN/A
3:00 PM46 °FPassing clouds.21 mph53%29.98 "HgN/A
2:30 PM48 °FPassing clouds.16 mph58%29.98 "HgN/A
2:00 PM46 °FPassing clouds.23 mph62%29.98 "HgN/A
1:30 PM50 °FScattered clouds.17 mph58%29.98 "HgN/A
1:00 PM48 °FPassing clouds.20 mph58%29.98 "HgN/A
12:30 PM46 °FScattered clouds.17 mph66%29.98 "HgN/A
12:00 PM46 °FPartly sunny.18 mph66%29.98 "HgN/A
11:30 AM45 °FScattered clouds.15 mph71%30.01 "HgN/A
11:00 AM45 °FPartly sunny.18 mph71%29.98 "HgN/A
10:30 AM45 °FPartly sunny.18 mph71%29.98 "HgN/A
10:00 AM43 °FBroken clouds.17 mph76%29.98 "HgN/A
9:30 AM41 °FScattered clouds.17 mph81%29.98 "HgN/A
9:00 AM43 °FScattered clouds.15 mph76%29.98 "HgN/A
8:30 AM41 °FScattered clouds.15 mph76%29.98 "HgN/A
8:00 AM39 °FSunny.10 mph81%29.98 "Hg10 mi
7:30 AM37 °FSunny.9 mph81%29.98 "Hg10 mi
7:00 AM37 °FPassing clouds.7 mph81%29.98 "HgN/A
6:30 AM37 °FPassing clouds.8 mph81%29.98 "HgN/A
6:00 AM37 °FPassing clouds.9 mph81%29.98 "HgN/A
5:30 AM36 °FPassing clouds.9 mph87%29.95 "HgN/A
5:00 AM37 °FPassing clouds.10 mph81%29.95 "HgN/A
4:00 AM39 °FClear.12 mph75%29.95 "Hg10 mi
3:00 AM39 °FClear.10 mph75%29.95 "Hg10 mi
2:00 AM41 °FClear.14 mph70%29.95 "Hg10 mi
1:00 AM41 °FClear.9 mph76%29.95 "Hg10 mi
12:00 AM43 °FClear.10 mph76%29.95 "Hg10 mi
11:00 PM
Sat, Apr 18
43 °FClear.9 mph76%29.95 "Hg10 mi
9:00 PM45 °FScattered clouds.12 mph76%29.92 "HgN/A
8:30 PM45 °FLight rain. Partly sunny.17 mph81%29.89 "HgN/A
8:00 PM45 °FPartly sunny.13 mph81%29.89 "HgN/A
7:30 PM45 °FPartly sunny.13 mph76%29.86 "HgN/A
7:00 PM46 °FPartly sunny.12 mph76%29.86 "HgN/A
Weather by CustomWeather, © 2015

See weather overviewHow to use our weather pages